Regional Weather Roundup
Issued by NWS

Home | Current Version | Previous Version | Text Only | Print | Product List | Glossary On
Versions: 1 2 3 4 5 6 7 8 9 10 11 12 13 14 15 16 17 18 19 20 21 22 23 24 25 26 27 28 29 30 31 32 33 34 35 36 37 38 39 40 41 42 43 44 45 46 47 48 49 50
000
ASUS45 KABQ 050910
RWRNM
NEW MEXICO REGIONAL WEATHER ROUNDUP
NATIONAL WEATHER SERVICE ALBUQUERQUE NM
200 AM MST MON DEC 05 2016

NOTE: "FAIR" MEANS FEW OR NO CLOUDS BELOW 12,000 FEET AGL WITH NO
       SIGNIFICANT WEATHER OR OBSTRUCTIONS TO VISION.

      THIS PRODUCT IS RELEASED AS TWO VERSIONS.  ONE VERSION NEAR
      THE TOP OF THE HOUR CONTAINING PRELIMINARY DATA FROM ALBUQUERQUE
      AND OTHER STATIONS.  A FINAL VERSION WITH ADDITIONAL DATA IS
      ISSUED ABOUT 10 MINUTES AFTER THE HOUR.

NMZ501-503-504-510>518-051000-
NORTHWEST PLATEAU/NORTHCENTRAL MOUNTAINS

CITY           SKY/WX    TMP DP  RH WIND       PRES   REMARKS
FARMINGTON     FAIR      22  19  89 NE7       29.99F WCI  13
LOS ALAMOS     FAIR      33  16  49 CALM      29.99S
SANTA FE       FAIR      19  14  81 N3        29.98S
TAOS           FAIR      18   7  62 N5        29.99S WCI  11
ANGEL FIRE     FAIR      27  13  57 S5G16     29.93F WCI  21

$$
NMZ402-403-502-505>509-051000-
WESTCENTRAL MOUNTAINS/SOUTHWEST MOUNTAINS

CITY           SKY/WX    TMP DP  RH WIND       PRES   REMARKS
GALLUP         FAIR      19  15  84 CALM      30.02F
GRANTS         FAIR      18  14  84 CALM      30.04F
SILVER CITY    FAIR      30  25  82 N9        30.02F WCI  21

$$
NMZ407-409-411-412-051000-
SOUTHERN DESERTS

CITY           SKY/WX    TMP DP  RH WIND       PRES   REMARKS
DEMING         FAIR      29  26  89 W6        30.03F WCI  23
LAS CRUCES     FAIR      32  23  68 N3        30.03S
HOLLOMAN AFB   FAIR      30  24  76 E3        30.05S
T OR C         FAIR      32  18  56 W7        30.00F WCI  26

$$
NMZ519>523-051000-
CENTRAL VALLEYS/CENTRAL HIGHLANDS

CITY           SKY/WX    TMP DP  RH WIND       PRES   REMARKS
ALBUQUERQUE    FAIR      33  12  41 CALM      30.00F
DOUBLE EAGLE   FAIR      25  11  55 W7        30.00F WCI  18
MORIARTY ARPT  FAIR      14   8  78 N3        29.99R
CLINES CORNERS FAIR      26   8  46 W17       29.95F WCI  13
BELEN          FAIR      25  18  77 W3        30.01F
SOCORRO        FAIR      26  17  68 W5        30.03S WCI  20

$$
NMZ524>526-539-540-051000-
SOUTHCENTRAL MOUNTAINS

CITY           SKY/WX    TMP DP  RH WIND       PRES   REMARKS
RUIDOSO        FAIR      36   9  32 W8        29.99F WCI  29

$$
NMZ527>531-051000-
NORTHEAST HIGHLANDS/NORTHEAST PLAINS

CITY           SKY/WX    TMP DP  RH WIND       PRES   REMARKS
LAS VEGAS      FAIR      23  12  62 CALM      29.87F
RATON          FAIR      18  12  77 NE7       29.82F WCI   9
CLAYTON        FAIR      31  26  82 SW16      29.78F WCI  20

$$
NMZ532>537-051000-
EASTCENTRAL PLAINS

CITY           SKY/WX    TMP DP  RH WIND       PRES   REMARKS
TUCUMCARI      FAIR      37  25  61 SW13      29.86F WCI  29
CANNON AFB     FAIR      24  24 100 SW6       29.94F WCI  17
CLOVIS AIRPORT FAIR      30  27  86 SW12      29.93F WCI  21

$$
NMZ028-029-538-051000-
SOUTHEAST PLAINS

CITY           SKY/WX    TMP DP  RH WIND       PRES   REMARKS
ROSWELL        FAIR      26  24  92 S5        29.98S WCI  20
ARTESIA        FAIR      28  28 100 SW10      29.99F WCI  19
CARLSBAD       FAIR      28  28 100 W3        29.99F
HOBBS          FAIR      30  30 100 W3        29.99F


$$



USA.gov is the U.S. government's official web portal to all federal, state and local government web resources and services.